Location: Colorado Springs
(38.8340°N, 104.8210°W)
Time: 16:45:44
(UTC-07:00)

Vanguard 3 - Pass Details

Date: 27 October 2017
Orbit: 509 x 3263 km, 33.3° (Epoch: 11 December)

Event Time Altitude Azimuth Distance (km) Brightness Sun altitude
Rises 03:47:32 0° 248° (WSW) 7,209 - -41.8°
Reaches altitude 10° 03:52:39 10° 246° (WSW) 6,080 - -40.9°
Exits shadow 04:07:59 58° 209° (SSW) 2,869 9.5 -38.0°
Maximum altitude 04:10:41 65° 170° (S) 2,587 9.4 -37.5°
Drops below altitude 10° 04:21:44 10° 92° (E) 3,925 11.4 -35.4°
Sets 04:24:18 0° 89° (E) 4,612 12.0 -34.9°
